Zurück zum Katalog

IRIDIUM 33 DEB

AktivPO
NORAD 33776·DEBRIS·🇺🇸 United States

Gestartet Sep 14, 1997 von Baikonur Cosmodrome

Loading…

Nächste Überflüge (nächste 24 Stunden)

TLE

AktuellSource: Space-Track

Epoche: Sep 14, 2026, 15:22 UTC

1 33776U 97051P   26257.64087317  .00000426  00000-0  13254-3 0  9996
2 33776  86.4069 324.8855 0014828  20.6776 141.4073 14.38629304920480

Verfolge IRIDIUM 33 DEB in Echtzeit mit AllMySat

Download on the App Store